User: anonymous
Location: Hancock Field Station
(44.9202°N, 120.4259°W)
Time: 06:04:51
(UTC-07:00)
Language:

Cosmos 1707 - Orbit

View from above orbital plane
View from above orbital plane
View from above satellite
View from above satellite

Ground track
Ground track

The orbit data is extracted from the following two-line orbital elements,

1 16326U 85113A   14237.30757679  .00001688  00000-0  10604-3 0  9871
2 16326 082.5110 134.6005 0012261 239.5973 120.4044 15.08579933562206
Epoch (UTC): 25 August 2014 07:22:54
Eccentricity: 0.0012261
inclination: 82.5110°
perigee height: 532 km
apogee height: 549 km
right ascension of ascending node: 134.6005°
argument of perigee: 239.5973°
revolutions per day: 15.08579933
mean anomaly at epoch: 120.4044°
orbit number at epoch: 56220

The dashed part of the orbit path shows where the satellite is in the earth's shadow,  

DLR